Location: Unspecified
(0.0000°N, 0.0000°E)
Time: 11:52:03
(UTC+00:00)

ACS3 Solar Sail - Pass Details

Date: 15 May 2025
Orbit: 935 x 1009 km, 97.5° (Epoch: 13 May)

Event Time Altitude Azimuth Distance (km) Brightness Sun altitude
Rises 04:16:56 0° 45° (NE) 3,644 5.9 -23.4°
Reaches altitude 10° 04:20:21 10° 65° (ENE) 2,715 5.3 -22.6°
Maximum altitude 04:24:04 17° 103° (ESE) 2,276 4.4 -21.8°
Drops below altitude 10° 04:27:48 10° 140° (SE) 2,750 4.4 -20.9°
Sets 04:31:16 0° 160° (SSE) 3,714 4.9 -20.1°
